Weather History for Lamar, CO

Change the Weather History Date:

Thursday, April 4, 2013

  Actual Average Record
Temperature  
Mean Temperature 46 °F 49 °F  
Max Temperature 73 °F 65 °F 89 °F (1967)
Min Temperature 19 °F 32 °F 8 °F (1920)
Degree Days  
Heating Degree Days 19 16  
Month to date heating degree days 101 67  
Since 1 July heating degree days 4902 5076  
Cooling Degree Days 0 0  
Month to date cooling degree days 0 0  
Year to date cooling degree days 0 0  
Moisture  
Dew Point 25 °F    
Average Humidity 57    
Maximum Humidity 96    
Minimum Humidity 17    
Precipitation  
Precipitation 0.00 in 0.03 in 0.91 in (1964)
Month to date precipitation T 0.12  
Year to date precipitation 0.26 1.63  
Sea Level Pressure  
Sea Level Pressure 30.07 in    
Wind  
Wind Speed 8 mph (SSW)    
Max Wind Speed 25 mph    
Max Gust Speed 35 mph    
Visibility 10 miles    
Events      
T = Trace of Precipitation, MM = Missing Value Source: NWS Daily Summary

Daily Weather History Graph

Daily Weather History Graph

Search for Another Location

Airport:

Trip Planner

Search our weather history database for the weather conditions in past years. The results will help you decide how hot, cold, wet, or windy it might be!

Date:

Astronomy

Apr. 04, 2013 Rise Set
Actual Time 6:30 AM MDT 7:16 PM MDT
Civil Twilight 6:04 AM MDT 7:43 PM MDT
Nautical Twilight 5:32 AM MDT 8:15 PM MDT
Astronomical Twilight 5:00 AM MDT 8:47 PM MDT
Moon 2:54 AM MDT (4/4) 1:42 PM MDT (4/4)
Length of Visible Light 13h 39m
Length of Day
12h 46m
Waning Crescent, 33% of the Moon is Illuminated
Apr 4
Waning Crescent
Apr 10
New
Apr 18
First Quarter
Apr 25
Full
May 2
Last Quarter

Hourly Weather History & Observations

Time (MDT) Temp. Windchill Dew Point Humidity Pressure Visibility Wind Dir Wind Speed Gust Speed Precip Events Conditions
12:53 AM 28.9 °F - 25.0 °F 85% 30.16 in 9.0 mi Calm Calm - N/A   Clear
1:53 AM 27.0 °F - 24.1 °F 89% 30.16 in 8.0 mi Calm Calm - N/A   Clear
2:53 AM 23.0 °F - 21.0 °F 92% 30.15 in 8.0 mi Calm Calm - N/A   Clear
3:53 AM 19.9 °F - 17.1 °F 89% 30.15 in 8.0 mi Calm Calm - N/A   Clear
4:53 AM 19.9 °F 11.1 °F 18.0 °F 92% 30.15 in 7.0 mi SSW 6.9 mph - N/A   Clear
5:53 AM 19.9 °F 12.1 °F 18.0 °F 92% 30.16 in 9.0 mi WSW 5.8 mph - N/A   Clear
6:53 AM 23.0 °F 15.8 °F 21.0 °F 92% 30.17 in 8.0 mi WSW 5.8 mph - N/A   Clear
7:53 AM 33.1 °F 25.5 °F 28.9 °F 85% 30.17 in 10.0 mi West 9.2 mph - N/A   Clear
8:53 AM 44.1 °F 38.6 °F 30.0 °F 58% 30.14 in 10.0 mi West 10.4 mph - N/A   Clear
9:53 AM 52.0 °F - 30.0 °F 43% 30.13 in 10.0 mi West 9.2 mph - N/A   Clear
10:53 AM 57.0 °F - 30.0 °F 36% 30.12 in 10.0 mi NW 5.8 mph - N/A   Clear
11:53 AM 62.1 °F - 27.0 °F 26% 30.10 in 10.0 mi Calm Calm - N/A   Clear
12:53 PM 68.0 °F - 21.9 °F 17% 30.05 in 10.0 mi Calm Calm - N/A   Clear
1:53 PM 69.1 °F - 28.0 °F 22% 30.04 in 10.0 mi Variable 3.5 mph - N/A   Clear
2:53 PM 72.0 °F - 28.0 °F 20% 30.00 in 10.0 mi South 5.8 mph - N/A   Clear
3:53 PM 72.0 °F - 27.0 °F 19% 30.01 in 10.0 mi Calm Calm - N/A   Clear
4:53 PM 71.1 °F - 26.1 °F 19% 30.00 in 10.0 mi South 4.6 mph - N/A   Clear
5:53 PM 72.0 °F - 24.1 °F 17% 29.99 in 10.0 mi South 3.5 mph - N/A   Clear
6:53 PM 68.0 °F - 23.0 °F 18% 29.98 in 10.0 mi SSE 8.1 mph - N/A   Clear
7:53 PM 60.1 °F - 21.9 °F 23% 29.98 in 10.0 mi SSE 12.7 mph - N/A   Clear
8:53 PM 57.9 °F - 27.0 °F 31% 29.98 in 10.0 mi South 19.6 mph - N/A   Clear
9:53 PM 55.9 °F - 28.0 °F 34% 29.98 in 10.0 mi South 19.6 mph 26.5 mph N/A   Clear
10:53 PM 54.0 °F - 28.0 °F 37% 29.96 in 10.0 mi South 19.6 mph 29.9 mph N/A   Clear
11:53 PM 52.0 °F - 27.0 °F 38% 29.96 in 10.0 mi South 20.7 mph - N/A   Clear